NOAA 16 DEB, 42355

Orbit data source: Space-Track

NOAA 16 DEB, 42355 is space debris in SSO originally from a launch on Thu, 21 Sep 2000 UTC launched from the Air Force Western Test Range (AFWTR). Debris objects in space refer to the collection of defunct objects orbiting the Earth. Examples of debris include non-operational satellites, rocket bodies, and fragments generated from explosions, collisions, or faulty payload assembly.

Loading next visibility...
Identifier
42355, 2000-055QX
Orbit
SSO
Country
Flag of USUS
Related business
Manufacturer
Unknown
Mission
Spacecraft
Bus & Motor
Unknown
Mass
Unknown
Launch date (UTC)
2000-09-21 (25 years ago)
Launch vehicle
Unknown
Launch site
Air Force Western Test Range (AFWTR)
Object type
Payload
Rocket body
Debris
Shape & HBR
Unknown shape, 0.1 m
Radar Cross Section
Small (<0.1 m²)

Expand to show TLE details & history
Last TLE update: 18 hours ago

TLE from 18 hours ago
0 NOAA 16 DEB
1 42355U 00055QX  25299.87127361  .00003546  00000-0  18599-2 0  9993
2 42355  98.7051 326.3732 0036914 185.0202 175.0606 14.14468177497602
Epoch: 2025-10-26T20:54Z
TLE epoch observation values (Epoch: 2025-10-26T20:54:38.039Z)
Latitude
-0.00008°
Longitude
-22.76654°
Altitude
873.596 km
Speed
7.402 km/s
True Right ascension
21h 45m 29s
True Declination
0° 00' 00"
Sunlit
Object was in daylight at epoch
Visualization orbit readout
Latitude
Unknown
Longitude
Unknown
Altitude
Unknown
Speed
Unknown
Apparent Right ascension
Unknown
Apparent Declination
Unknown
Sunlit
N/A
Visualization observer readout
Local Sidereal Time
10:06:49
Azimuth
Unknown
Elevation
Unknown
Doppler factor
Unknown
Orbital elements
Apogee altitude
867.937 km
Perigee altitude
814.638 km
Semi-major axis
7,219.425 km
Eccentricity
0.00369
Inclination
98.7051°
RAAN
326.3732°
Arg. of periapsis
185.0202°
True anomaly
175.09685°
Mean anomaly
175.0606°
Eccentric anomaly
175.07874°
Mean motion
3.53826 °/min
Orbital period
101.75 mins
BSTAR
0.0018599
Loading maneuver chart data...
Computing Atmospheric mass density...
Loading historical data...
Loading historical data...
Loading historical data...
Loading historical data...
Loading historical data...
Loading historical data...
Loading historical data...

Documentation

Showing up to 5 results
|